Address 0xfce3e6b1739812cdda335964f281e9a0472b6047

 
Txn Hash Method
Block
From
To
Value [Txn Fee]
0xceba06a2971e5d73c9a48855ec27150a36159808c9c0df69de6bd5b7be477d9cSubmit219096472021-11-28 19:13:1350 mins ago0xfce3e6b1739812cdda335964f281e9a0472b6047OUT 0x06c7f5cbae5eef76d4d584badfd53c2122f1cf210 MATIC0.0036114849
0x8fdb43d8e63a8ddac57939ce13a6177aae18fd8a9b8f280182db270a9e596d0fSubmit219084542021-11-28 18:31:411 hr 32 mins ago0xfce3e6b1739812cdda335964f281e9a0472b6047OUT 0x06c7f5cbae5eef76d4d584badfd53c2122f1cf210 MATIC0.004256505
0x2401e6104cf39fa142b6d102b78a0e941f08b48ffbe1791f98802566821dadf0Submit219072742021-11-28 17:48:112 hrs 15 mins ago0xfce3e6b1739812cdda335964f281e9a0472b6047OUT 0xa0ea34df1edef56d8e1a8479f7cc2ce70d5dffb50 MATIC0.00598218
0x2c96840cff0f930377183bc412cd5434646324f464afd03ccde35b583ae9f206Submit219054572021-11-28 16:40:243 hrs 23 mins ago0xfce3e6b1739812cdda335964f281e9a0472b6047OUT 0x06c7f5cbae5eef76d4d584badfd53c2122f1cf210 MATIC0.005085618
0x77b63841be1897fd73f8765165d5299cc9c97b2e5fcd88ee5bf1288b902fcb07Submit219029342021-11-28 15:04:014 hrs 59 mins ago0xfce3e6b1739812cdda335964f281e9a0472b6047OUT 0x06c7f5cbae5eef76d4d584badfd53c2122f1cf210 MATIC0.004185753
0x734bf1d41da0bb17bb36f8ad9d7d83b85026bb14df20763286903acfab7ceffcSubmit219016552021-11-28 14:19:085 hrs 44 mins ago0xfce3e6b1739812cdda335964f281e9a0472b6047OUT 0x06c7f5cbae5eef76d4d584badfd53c2122f1cf210 MATIC0.00372955
0xb84d2002836008029442d7707025afd3eedbbb6d1f80ba15a9ca656a0a0a5babSubmit219016142021-11-28 14:17:425 hrs 45 mins ago0xfce3e6b1739812cdda335964f281e9a0472b6047OUT 0x06c7f5cbae5eef76d4d584badfd53c2122f1cf210 MATIC0.01215288
0x50f2be309119fd22e36124974d8fb0ca72955c6ad593f9e4d2f8d20c30bb6c4aSubmit219014632021-11-28 14:12:325 hrs 51 mins ago0xfce3e6b1739812cdda335964f281e9a0472b6047OUT 0x06c7f5cbae5eef76d4d584badfd53c2122f1cf210 MATIC0.00741775
0x1b847ac0d6ed315694ee231e35a7e85e3ae3e772856f5bf5776499561a0acebcSubmit219012422021-11-28 14:04:545 hrs 58 mins ago0xfce3e6b1739812cdda335964f281e9a0472b6047OUT 0x06c7f5cbae5eef76d4d584badfd53c2122f1cf210 MATIC0.00527585
0x8935331e401698cf6c25a74afb597e44763ed5131576a704ba203edb27b395d8Submit219008752021-11-28 13:50:126 hrs 13 mins ago0xfce3e6b1739812cdda335964f281e9a0472b6047OUT 0x3de262d27ad7f03522cd1d2d1a3b4c9a90ca40710 MATIC0.003415248
0xe1a61cee9ae92be79c9f4fd382f6a87dfae4489c670bfc87883ba1dddcd97d75Submit218984452021-11-28 12:15:087 hrs 48 mins ago0xfce3e6b1739812cdda335964f281e9a0472b6047OUT 0x06c7f5cbae5eef76d4d584badfd53c2122f1cf210 MATIC0.005482015
0x89f7594f560ce86fa0be2a07528a0bc246e12b524dbe2aed319bc90de97e9567Submit218984042021-11-28 12:13:427 hrs 49 mins ago0xfce3e6b1739812cdda335964f281e9a0472b6047OUT 0x06c7f5cbae5eef76d4d584badfd53c2122f1cf210 MATIC0.0055665
0xea68961f5cff00792ef895d72da1284d0f78530bac575d2c6bf4638347047a79Submit218983372021-11-28 12:11:247 hrs 52 mins ago0xfce3e6b1739812cdda335964f281e9a0472b6047OUT 0x06c7f5cbae5eef76d4d584badfd53c2122f1cf210 MATIC0.00455787
0x2c47612c08bb84524f457131c85a30d351d7cbf435f2bf8019b30877cdefeb01Submit218982532021-11-28 12:08:327 hrs 55 mins ago0xfce3e6b1739812cdda335964f281e9a0472b6047OUT 0x06c7f5cbae5eef76d4d584badfd53c2122f1cf210 MATIC0.024478575001
0xe8101df216e657989ecd99ecb0d7983fdc8f9a6ad4c54b70eaa44efc66a6cfe7Submit218982152021-11-28 12:07:127 hrs 56 mins ago0xfce3e6b1739812cdda335964f281e9a0472b6047OUT 0x06c7f5cbae5eef76d4d584badfd53c2122f1cf210 MATIC0.005188977963
0x0a18a98224b2f948da01ba77f25b64abc2f4b2dc8c8bd71b945ae47ced20088bSubmit218980252021-11-28 12:00:408 hrs 3 mins ago0xfce3e6b1739812cdda335964f281e9a0472b6047OUT 0x06c7f5cbae5eef76d4d584badfd53c2122f1cf210 MATIC0.005867785
0x308dbb0e1bd330db6840cce86af69f47357f9399aa72f8ce4a05fe9491ad7c13Submit218978662021-11-28 11:55:148 hrs 8 mins ago0xfce3e6b1739812cdda335964f281e9a0472b6047OUT 0x06c7f5cbae5eef76d4d584badfd53c2122f1cf210 MATIC0.004256505
0xf2c2e321435683c2359b8e033b5e444ac069e84b83339d0b352b898e621c6659Submit218962012021-11-28 10:48:599 hrs 14 mins ago0xfce3e6b1739812cdda335964f281e9a0472b6047OUT 0x06c7f5cbae5eef76d4d584badfd53c2122f1cf210 MATIC0.004147006465
0x01b1ee46cd3ef49c21afdd7de0f9f79e292c3e34fdaffc681efe7fc357b8929cSubmit218918912021-11-28 8:05:3411 hrs 58 mins ago0xfce3e6b1739812cdda335964f281e9a0472b6047OUT 0x06c7f5cbae5eef76d4d584badfd53c2122f1cf210 MATIC0.00741775
0x1989f8d4f9905d61276eebcbd9541f0f498985a56c936696b66aeeee50c3c06aSubmit218910792021-11-28 7:37:4212 hrs 25 mins ago0xfce3e6b1739812cdda335964f281e9a0472b6047OUT 0x06c7f5cbae5eef76d4d584badfd53c2122f1cf210 MATIC0.0052028
0x127e9d63052da65843b04dbe6ee315480863d9d93f46b0b0a9cfb5bacf695a63Submit218908862021-11-28 7:31:0412 hrs 32 mins ago0xfce3e6b1739812cdda335964f281e9a0472b6047OUT 0xef7b91635aa5792ae31c1bfeaab1e6b2b9c027e00 MATIC0.0054241
0x926c20afaa39e258b0156fe4fbe083777970ee4959496a3b2072e9dda08a3b68Submit218898352021-11-28 6:52:2213 hrs 11 mins ago0xfce3e6b1739812cdda335964f281e9a0472b6047OUT 0x06c7f5cbae5eef76d4d584badfd53c2122f1cf210 MATIC0.00717689
0x18eaabac162d52efc266e9f663a1ee966d158c578d2b98f1f3df03bc4d874581Submit218892672021-11-28 6:30:1413 hrs 33 mins ago0xfce3e6b1739812cdda335964f281e9a0472b6047OUT 0x06c7f5cbae5eef76d4d584badfd53c2122f1cf210 MATIC0.0034653645
0x72e5a89aba46d6586fe22c13be35285c428aaaf3bfe8a1019ebbef09d99b27dcSubmit218876102021-11-28 5:29:1414 hrs 34 mins ago0xfce3e6b1739812cdda335964f281e9a0472b6047OUT 0x06c7f5cbae5eef76d4d584badfd53c2122f1cf210 MATIC0.0054835
0x8e8682521ae9d7aa7404d44b73133889347865927e78f79e420af273d32fc567Submit218865392021-11-28 4:48:2215 hrs 15 mins ago0xfce3e6b1739812cdda335964f281e9a0472b6047OUT 0x06c7f5cbae5eef76d4d584badfd53c2122f1cf210 MATIC0.00512545
[ Download CSV Export 
Parent Txn Hash Block From To Value
Loading

Contract Name:
0 MATIC

Compiler Version
0

Optimization Enabled:
0 MATIC

Other Settings:
-NA-
Block Transaction Gas Used Reward
Age Block Fee Address BC Fee Address Voting Power Jailed Incoming
Block Uncle Number Difficulty Gas Used Reward
Loading
Loading
Make sure to use the "Vote Down" button for any spammy posts, and the "Vote Up" for interesting conversations.